Simultaneous Nadir Overpasses (SNOs) Predictions

Prediction of SNOs between AQUA and NPP Satellite Orbit:

Table of predicted SNOs for the next 14.0 days since TLE Epoch: 12/1/2017
Index Date (AQUA) Time (AQUA) Lat,Lon (AQUA) SZA (AQUA ) Date (NPP) Time (NPP) Lat,Lon (NPP) SZA (NPP ) Distance(km) Time Diff (sec)
1 12/02/2017 13:17:35 69.89,-152.41 124.03 12/02/2017 13:16:22 69.97,-153.09 124.27 27.35 73
2 12/02/2017 14:05:02 -76.22, 28.47 62.15 12/02/2017 14:05:03 -76.21, 28.44 62.14 1.08 1
3 12/02/2017 14:51:02 81.72, -99.98 107.07 12/02/2017 14:52:15 81.16,-100.55 106.75 63.32 73
4 12/05/2017 05:32:21 75.35, -25.86 119.18 12/05/2017 05:31:30 75.34, -25.95 119.25 2.52 51
5 12/05/2017 06:21:26 -76.46, 145.17 62.00 12/05/2017 06:21:52 -76.45, 145.07 62.00 2.79 26
6 12/07/2017 21:48:35 76.09, 92.21 118.76 12/07/2017 21:48:08 76.09, 92.26 118.77 1.64 27
7 12/07/2017 22:37:42 -77.07, -96.77 62.31 12/07/2017 22:38:32 -77.08, -96.69 62.38 2.08 50
8 12/10/2017 13:19:27 -63.66, 20.90 49.34 12/10/2017 13:18:14 -63.82, 19.78 48.92 57.90 73
9 12/10/2017 14:04:57 76.37,-150.99 118.77 12/10/2017 14:04:55 76.38,-150.97 118.77 0.65 2
10 12/10/2017 14:53:15 -79.42, 30.85 64.87 12/10/2017 14:54:29 -79.29, 31.36 65.00 17.94 74
11 12/13/2017 05:32:15 -75.66, 155.03 60.21 12/13/2017 05:31:21 -75.66, 155.06 60.17 0.96 54
12 12/13/2017 06:21:19 76.70, -34.01 118.68 12/13/2017 06:21:42 76.70, -33.99 118.66 0.34 23




NCC Satellite Simultaneous Nadir Overpasses (SNOs) Prediction Service
